Location: Bronnegerveen
(52.9548°N, 6.8388°E)
Time: 02:12:15
(UTC+00:00)

Cosmos 1741 Rocket - Pass Details

Date: 15 June 2025
Orbit: 757 x 778 km, 74.0° (Epoch: 07 July)

Event Time Altitude Azimuth Distance (km) Brightness Sun altitude
Exits shadow 00:26:35 18° 186° (S) 1,817 5.3 -12.9°
Maximum altitude 00:30:26 63° 110° (ESE) 872 4.2 -12.7°
Drops below altitude 10° 00:35:41 10° 31° (NNE) 2,343 7.8 -12.5°
Sets 00:38:06 0° 28° (NNE) 3,275 9.0 -12.4°
